Precipitable_Water
0.44 0.44 0.44 0.44 0.44 0.45 0.47 0.47 0.46 0.46 0.47 0.47 0.46 0.43 0.40 0.38 0.36 0.37 0.37 0.36 0.37 0.37 0.36 0.36 0.36 0.36 0.36 0.36 0.39 0.43 0.44 0.33 0.32 0.34 0.29 0.23 0.26 0.45 0.58 0.58 0.56 0.52 0.59 0.57 0.53 0.55 0.48 0.52 0.64 0.92 1.07 1.11 1.22 1.25 1.44 1.50 1.61 1.53 1.20 1.09 0.98 1.05 1.05 1.23 1.21 1.30 1.44 1.36 1.49 1.54 1.61 1.55 1.45 1.65 1.73 1.84 1.63 1.67 1.63 1.52 1.58 1.60 1.47 1.49 1.47 1.53 1.54 1.55
0.44 0.44 0.44 0.43 0.43 0.45 0.46 0.47 0.47 0.47 0.47 0.46 0.44 0.42 0.41 0.40 0.39 0.37 0.36 0.36 0.37 0.36 0.37 0.37 0.35 0.35 0.36 0.37 0.40 0.42 0.38 0.31 0.29 0.34 0.28 0.34 0.31 0.42 0.54 0.64 0.62 0.53 0.52 0.45 0.41 0.44 0.41 0.45 0.63 0.93 0.99 0.93 1.21 1.12 1.37 1.23 1.50 1.26 1.18 1.12 0.94 1.09 1.16 1.39 1.35 1.41 1.39 1.44 1.55 1.60 1.65 1.59 1.55 1.65 1.71 1.51 1.48 1.51 1.45 1.43 1.53 1.47 1.46 1.52 1.51 1.52 1.50 1.49
0.45 0.45 0.44 0.43 0.43 0.44 0.45 0.46 0.47 0.46 0.46 0.46 0.44 0.43 0.41 0.40 0.40 0.40 0.38 0.37 0.36 0.35 0.37 0.37 0.35 0.34 0.36 0.39 0.41 0.42 0.35 0.31 0.41 0.40 0.49 0.55 0.45 0.43 0.49 0.63 0.62 0.56 0.44 0.34 0.39 0.44 0.43 0.46 0.62 0.82 0.91 0.90 1.12 1.01 1.20 1.15 1.34 1.33 1.19 1.01 1.03 1.20 1.27 1.38 1.39 1.38 1.48 1.56 1.47 1.53 1.61 1.61 1.63 1.66 1.73 1.47 1.48 1.50 1.33 1.25 1.36 1.36 1.30 1.35 1.43 1.46 1.45 1.44
0.45 0.45 0.45 0.44 0.43 0.44 0.45 0.46 0.46 0.46 0.45 0.45 0.44 0.43 0.41 0.40 0.41 0.41 0.40 0.38 0.36 0.35 0.37 0.38 0.35 0.36 0.38 0.40 0.43 0.42 0.38 0.43 0.41 0.53 0.64 0.60 0.57 0.54 0.52 0.60 0.66 0.61 0.47 0.36 0.37 0.46 0.54 0.71 0.81 0.82 0.85 0.95 1.02 1.11 1.05 1.11 1.09 1.23 1.16 0.99 1.04 1.21 1.18 1.33 1.41 1.43 1.52 1.60 1.47 1.53 1.58 1.57 1.61 1.66 1.57 1.51 1.40 1.39 1.38 1.48 1.36 1.26 1.28 1.31 1.39 1.39 1.40 1.38
0.46 0.45 0.45 0.44 0.44 0.44 0.45 0.46 0.46 0.45 0.45 0.44 0.44 0.43 0.41 0.41 0.40 0.41 0.40 0.39 0.37 0.35 0.37 0.39 0.37 0.39 0.41 0.43 0.41 0.44 0.28 0.35 0.40 0.64 0.61 0.64 0.57 0.58 0.58 0.58 0.63 0.61 0.48 0.36 0.34 0.46 0.57 0.73 0.90 0.96 0.93 0.87 1.04 1.08 1.02 1.12 1.16 1.16 1.06 1.11 1.16 1.23 1.18 1.32 1.40 1.49 1.53 1.60 1.54 1.55 1.43 1.46 1.71 1.65 1.55 1.50 1.29 1.25 1.37 1.47 1.51 1.41 1.35 1.32 1.31 1.35 1.38 1.34
0.47 0.46 0.45 0.44 0.44 0.44 0.45 0.46 0.46 0.45 0.45 0.44 0.43 0.42 0.41 0.40 0.40 0.40 0.40 0.39 0.37 0.36 0.39 0.40 0.41 0.40 0.43 0.43 0.42 0.40 0.28 0.16 0.55 0.63 0.65 0.60 0.62 0.56 0.59 0.59 0.60 0.59 0.50 0.34 0.28 0.41 0.54 0.68 0.73 0.74 0.81 0.85 0.91 0.92 1.01 1.08 1.17 0.92 1.05 1.13 1.16 1.21 1.15 1.29 1.37 1.45 1.50 1.48 1.49 1.45 1.61 1.68 1.58 1.48 1.56 1.52 1.39 1.46 1.66 1.67 1.58 1.47 1.43 1.42 1.44 1.35 1.31 1.31
0.49 0.46 0.45 0.45 0.44 0.44 0.45 0.45 0.46 0.45 0.45 0.44 0.43 0.42 0.41 0.41 0.41 0.40 0.39 0.38 0.37 0.37 0.40 0.42 0.41 0.42 0.42 0.43 0.42 0.38 0.34 0.40 0.58 0.63 0.67 0.60 0.60 0.61 0.59 0.62 0.60 0.57 0.50 0.31 0.26 0.42 0.57 0.61 0.64 0.62 0.74 0.81 0.91 0.95 1.02 1.03 1.08 1.01 0.94 1.07 1.08 1.14 1.13 1.28 1.28 1.44 1.45 1.46 1.47 1.58 1.67 1.49 1.52 1.34 1.57 1.50 1.61 1.64 1.78 1.70 1.66 1.55 1.51 1.47 1.39 1.37 1.29 1.28
0.51 0.48 0.46 0.45 0.45 0.44 0.45 0.46 0.46 0.46 0.47 0.46 0.44 0.43 0.42 0.41 0.41 0.40 0.40 0.39 0.38 0.38 0.41 0.43 0.42 0.43 0.44 0.32 0.24 0.24 0.30 0.29 0.48 0.62 0.64 0.65 0.63 0.62 0.59 0.62 0.56 0.51 0.46 0.30 0.25 0.41 0.55 0.54 0.53 0.65 0.66 0.71 0.82 0.91 1.00 0.97 0.99 0.90 0.90 0.98 1.01 1.07 1.21 1.25 1.28 1.37 1.41 1.48 1.62 1.60 1.44 1.47 1.56 1.53 1.58 1.53 1.61 1.77 1.75 1.77 1.68 1.57 1.48 1.46 1.39 1.35 1.32 1.31
0.52 0.50 0.48 0.46 0.45 0.45 0.45 0.45 0.46 0.48 0.48 0.48 0.46 0.44 0.42 0.41 0.41 0.41 0.39 0.39 0.38 0.39 0.41 0.43 0.42 0.43 0.45 0.33 0.26 0.27 0.23 0.38 0.52 0.58 0.65 0.63 0.65 0.64 0.57 0.47 0.59 0.45 0.45 0.35 0.29 0.45 0.48 0.47 0.58 0.65 0.58 0.74 0.87 0.83 0.93 0.89 0.78 0.89 0.86 0.90 0.93 1.05 1.15 1.19 1.22 1.30 1.37 1.44 1.54 1.45 1.43 1.54 1.62 1.71 1.50 1.59 1.70 1.78 1.79 1.71 1.65 1.53 1.42 1.41 1.38 1.36 1.30 1.28
0.52 0.51 0.49 0.47 0.45 0.45 0.45 0.45 0.47 0.48 0.48 0.48 0.48 0.45 0.44 0.42 0.42 0.41 0.39 0.38 0.38 0.38 0.40 0.42 0.43 0.44 0.37 0.28 0.25 0.22 0.35 0.44 0.57 0.62 0.63 0.64 0.61 0.58 0.49 0.48 0.51 0.48 0.43 0.36 0.32 0.46 0.45 0.56 0.64 0.80 0.84 0.81 0.85 0.78 0.88 0.87 0.78 0.86 0.78 0.71 0.68 0.98 1.09 1.18 1.13 1.23 1.33 1.36 1.46 1.37 1.39 1.46 1.59 1.51 1.24 1.61 1.71 1.76 1.71 1.67 1.64 1.49 1.38 1.38 1.38 1.37 1.33 1.28
0.52 0.51 0.49 0.47 0.46 0.46 0.45 0.46 0.48 0.48 0.48 0.48 0.47 0.47 0.44 0.43 0.43 0.42 0.39 0.38 0.37 0.37 0.40 0.42 0.47 0.42 0.28 0.30 0.14 0.18 0.48 0.46 0.54 0.55 0.59 0.58 0.49 0.47 0.41 0.50 0.53 0.47 0.45 0.36 0.36 0.48 0.61 0.74 0.81 0.84 0.80 0.74 0.78 0.73 0.76 0.80 0.81 0.72 0.69 0.67 0.66 0.67 0.94 1.04 1.21 1.24 1.28 1.27 1.45 1.43 1.34 1.46 1.51 1.51 1.33 1.51 1.68 1.71 1.61 1.58 1.55 1.51 1.39 1.38 1.38 1.36 1.35 1.31
0.52 0.51 0.50 0.48 0.47 0.46 0.46 0.47 0.48 0.49 0.49 0.48 0.47 0.46 0.45 0.43 0.42 0.41 0.39 0.37 0.37 0.38 0.43 0.48 0.49 0.40 0.38 0.35 0.26 0.24 0.44 0.42 0.39 0.53 0.60 0.51 0.39 0.46 0.49 0.56 0.59 0.50 0.46 0.36 0.42 0.54 0.69 0.77 0.77 0.71 0.61 0.78 0.64 0.72 0.68 0.74 0.70 0.66 0.64 0.55 0.57 0.57 0.75 1.01 1.07 1.15 1.23 1.19 1.40 1.42 1.28 1.24 1.31 1.23 1.47 1.61 1.68 1.65 1.58 1.53 1.53 1.49 1.41 1.38 1.37 1.38 1.37 1.32
0.51 0.50 0.49 0.48 0.47 0.46 0.46 0.47 0.49 0.50 0.50 0.49 0.48 0.46 0.44 0.42 0.42 0.41 0.39 0.38 0.39 0.40 0.49 0.53 0.52 0.53 0.45 0.27 0.30 0.39 0.44 0.41 0.38 0.35 0.49 0.44 0.39 0.51 0.51 0.61 0.63 0.55 0.49 0.40 0.47 0.65 0.76 0.78 0.72 0.59 0.71 0.67 0.64 0.55 0.66 0.68 0.62 0.63 0.59 0.53 0.50 0.50 0.57 0.94 1.11 1.15 1.16 1.23 1.32 1.26 0.82 1.01 1.16 1.33 1.48 1.60 1.60 1.61 1.54 1.48 1.55 1.48 1.42 1.39 1.35 1.36 1.38 1.37
0.51 0.50 0.49 0.48 0.47 0.47 0.49 0.50 0.52 0.52 0.50 0.50 0.48 0.46 0.44 0.42 0.41 0.40 0.39 0.39 0.41 0.43 0.48 0.59 0.57 0.48 0.46 0.25 0.37 0.48 0.43 0.44 0.41 0.33 0.26 0.34 0.32 0.38 0.54 0.60 0.65 0.59 0.51 0.42 0.58 0.76 0.73 0.70 0.62 0.57 0.64 0.59 0.58 0.73 0.63 0.58 0.59 0.48 0.51 0.49 0.42 0.44 0.49 0.94 1.07 1.13 1.02 1.25 1.20 1.17 0.79 0.94 1.17 1.27 1.47 1.57 1.58 1.51 1.43 1.46 1.53 1.49 1.40 1.38 1.36 1.35 1.35 1.35
0.51 0.50 0.50 0.49 0.48 0.50 0.53 0.55 0.55 0.54 0.52 0.50 0.48 0.46 0.44 0.41 0.41 0.42 0.42 0.42 0.43 0.44 0.54 0.59 0.60 0.54 0.43 0.43 0.55 0.53 0.55 0.45 0.32 0.32 0.33 0.29 0.29 0.34 0.41 0.50 0.57 0.57 0.47 0.44 0.60 0.72 0.68 0.62 0.61 0.57 0.54 0.66 0.65 0.58 0.51 0.47 0.48 0.47 0.39 0.36 0.40 0.42 0.49 0.84 1.03 1.06 0.91 1.13 1.20 1.05 0.76 0.87 1.08 1.26 1.41 1.52 1.53 1.50 1.42 1.46 1.49 1.47 1.39 1.36 1.34 1.35 1.36 1.35
0.55 0.55 0.54 0.54 0.54 0.56 0.59 0.59 0.58 0.56 0.54 0.52 0.48 0.46 0.44 0.44 0.44 0.45 0.45 0.44 0.47 0.50 0.55 0.47 0.58 0.56 0.43 0.37 0.45 0.58 0.41 0.28 0.25 0.27 0.36 0.27 0.23 0.23 0.35 0.44 0.50 0.55 0.50 0.44 0.60 0.66 0.70 0.69 0.58 0.58 0.56 0.58 0.51 0.46 0.43 0.39 0.39 0.42 0.38 0.35 0.35 0.41 0.46 0.51 0.90 0.96 0.94 0.94 1.10 0.97 0.76 0.92 1.02 1.25 1.38 1.44 1.43 1.43 1.41 1.43 1.45 1.46 1.41 1.37 1.33 1.35 1.37 1.36
0.57 0.59 0.59 0.59 0.59 0.59 0.60 0.61 0.59 0.58 0.56 0.53 0.50 0.47 0.47 0.47 0.52 0.53 0.53 0.54 0.53 0.58 0.51 0.44 0.60 0.61 0.29 0.44 0.56 0.43 0.29 0.26 0.26 0.24 0.24 0.26 0.23 0.24 0.26 0.38 0.44 0.47 0.52 0.53 0.57 0.64 0.69 0.64 0.66 0.59 0.56 0.46 0.48 0.45 0.33 0.27 0.28 0.32 0.37 0.34 0.37 0.36 0.45 0.47 0.67 0.84 0.94 0.87 0.83 0.96 0.81 0.83 0.98 1.16 1.32 1.40 1.39 1.35 1.36 1.37 1.41 1.44 1.42 1.38 1.38 1.36 1.36 1.34
0.59 0.60 0.61 0.61 0.60 0.60 0.61 0.61 0.60 0.58 0.56 0.54 0.52 0.49 0.46 0.50 0.57 0.58 0.54 0.58 0.63 0.60 0.64 0.69 0.65 0.56 0.37 0.49 0.24 0.27 0.26 0.23 0.24 0.27 0.23 0.25 0.25 0.27 0.26 0.29 0.41 0.41 0.49 0.51 0.63 0.55 0.65 0.57 0.61 0.45 0.44 0.42 0.41 0.36 0.25 0.19 0.23 0.25 0.29 0.30 0.33 0.37 0.40 0.43 0.42 0.70 0.79 0.83 0.72 0.81 0.80 0.84 0.93 1.08 1.20 1.29 1.36 1.33 1.31 1.33 1.38 1.40 1.39 1.38 1.37 1.36 1.36 1.33
0.60 0.60 0.61 0.61 0.61 0.61 0.61 0.61 0.60 0.59 0.58 0.57 0.54 0.51 0.51 0.53 0.53 0.51 0.42 0.46 0.40 0.39 0.35 0.36 0.37 0.25 0.16 0.24 0.28 0.29 0.25 0.23 0.26 0.28 0.24 0.25 0.26 0.29 0.30 0.32 0.39 0.36 0.36 0.39 0.47 0.55 0.60 0.56 0.54 0.43 0.31 0.31 0.33 0.32 0.27 0.29 0.29 0.27 0.28 0.30 0.32 0.30 0.33 0.36 0.41 0.58 0.68 0.70 0.68 0.68 0.65 0.76 0.89 0.97 1.11 1.22 1.29 1.26 1.30 1.35 1.37 1.40 1.40 1.39 1.36 1.36 1.37 1.32
0.61 0.61 0.61 0.60 0.61 0.61 0.61 0.60 0.60 0.59 0.60 0.53 0.47 0.43 0.36 0.28 0.29 0.33 0.39 0.38 0.29 0.32 0.37 0.38 0.41 0.36 0.35 0.33 0.22 0.23 0.26 0.26 0.21 0.25 0.27 0.27 0.24 0.26 0.33 0.34 0.34 0.39 0.34 0.26 0.39 0.49 0.57 0.40 0.35 0.31 0.32 0.33 0.34 0.36 0.35 0.34 0.33 0.31 0.30 0.30 0.31 0.32 0.32 0.36 0.36 0.48 0.67 0.66 0.61 0.63 0.66 0.74 0.83 0.91 1.01 1.13 1.21 1.23 1.27 1.29 1.31 1.34 1.36 1.37 1.36 1.36 1.39 1.33
0.61 0.62 0.61 0.60 0.60 0.61 0.61 0.59 0.59 0.59 0.61 0.57 0.51 0.39 0.25 0.26 0.19 0.18 0.27 0.25 0.27 0.31 0.30 0.29 0.30 0.29 0.27 0.26 0.22 0.21 0.19 0.21 0.25 0.24 0.26 0.33 0.26 0.19 0.24 0.35 0.32 0.29 0.31 0.30 0.31 0.48 0.49 0.35 0.33 0.36 0.39 0.40 0.37 0.37 0.37 0.35 0.32 0.28 0.26 0.26 0.26 0.29 0.30 0.34 0.35 0.45 0.62 0.59 0.64 0.71 0.66 0.70 0.80 0.92 1.01 1.12 1.12 1.11 1.18 1.24 1.28 1.31 1.35 1.37 1.34 1.35 1.40 1.38
0.62 0.63 0.62 0.60 0.60 0.60 0.61 0.59 0.59 0.61 0.63 0.57 0.50 0.38 0.38 0.34 0.35 0.36 0.31 0.21 0.24 0.28 0.27 0.26 0.28 0.24 0.26 0.25 0.23 0.21 0.17 0.20 0.20 0.26 0.32 0.33 0.25 0.24 0.22 0.31 0.28 0.25 0.30 0.33 0.34 0.37 0.33 0.28 0.32 0.37 0.41 0.42 0.41 0.38 0.37 0.32 0.28 0.26 0.22 0.23 0.23 0.23 0.30 0.35 0.35 0.36 0.60 0.57 0.55 0.70 0.66 0.69 0.82 0.92 1.01 1.04 1.04 1.14 1.23 1.23 1.25 1.28 1.33 1.36 1.35 1.36 1.41 1.41
0.63 0.63 0.62 0.62 0.60 0.60 0.59 0.58 0.59 0.64 0.60 0.51 0.42 0.41 0.38 0.41 0.45 0.44 0.37 0.27 0.22 0.25 0.25 0.24 0.21 0.20 0.20 0.22 0.23 0.20 0.19 0.18 0.18 0.24 0.31 0.31 0.29 0.28 0.32 0.29 0.29 0.32 0.34 0.31 0.26 0.29 0.26 0.29 0.32 0.36 0.38 0.37 0.37 0.37 0.37 0.36 0.34 0.29 0.24 0.19 0.16 0.22 0.24 0.27 0.32 0.31 0.37 0.69 0.61 0.68 0.64 0.74 0.90 0.98 0.99 1.08 1.09 1.16 1.26 1.29 1.31 1.33 1.30 1.32 1.33 1.37 1.39 1.39
0.63 0.64 0.63 0.62 0.62 0.59 0.59 0.56 0.61 0.61 0.54 0.51 0.47 0.42 0.47 0.49 0.46 0.42 0.29 0.19 0.17 0.21 0.24 0.26 0.25 0.23 0.21 0.19 0.22 0.20 0.18 0.20 0.21 0.25 0.34 0.29 0.26 0.33 0.33 0.32 0.32 0.31 0.29 0.31 0.28 0.28 0.25 0.30 0.34 0.36 0.36 0.33 0.29 0.34 0.35 0.34 0.30 0.29 0.25 0.21 0.17 0.20 0.23 0.28 0.29 0.31 0.35 0.34 0.63 0.82 0.75 0.77 0.88 0.88 0.94 1.09 1.19 1.19 1.25 1.30 1.33 1.36 1.36 1.38 1.41 1.43 1.46 1.41
0.63 0.63 0.63 0.63 0.62 0.62 0.58 0.57 0.53 0.51 0.57 0.51 0.47 0.52 0.50 0.49 0.46 0.41 0.26 0.22 0.24 0.24 0.32 0.28 0.29 0.24 0.24 0.26 0.24 0.19 0.20 0.19 0.19 0.23 0.32 0.30 0.24 0.23 0.24 0.29 0.31 0.27 0.30 0.33 0.31 0.27 0.26 0.29 0.35 0.35 0.36 0.37 0.33 0.30 0.31 0.33 0.29 0.28 0.26 0.21 0.18 0.21 0.23 0.27 0.29 0.29 0.31 0.28 0.74 0.72 0.66 0.73 0.84 0.85 0.86 1.01 1.10 1.09 1.23 1.22 1.24 1.31 1.37 1.39 1.34 1.37 1.46 1.49
0.62 0.63 0.62 0.62 0.62 0.60 0.59 0.47 0.49 0.55 0.54 0.45 0.53 0.58 0.53 0.51 0.48 0.43 0.30 0.19 0.16 0.23 0.27 0.22 0.27 0.22 0.26 0.22 0.20 0.19 0.19 0.17 0.23 0.24 0.25 0.25 0.24 0.19 0.20 0.23 0.27 0.27 0.32 0.34 0.35 0.34 0.30 0.34 0.30 0.29 0.30 0.32 0.34 0.31 0.32 0.31 0.27 0.25 0.23 0.23 0.20 0.21 0.23 0.24 0.27 0.27 0.25 0.27 0.73 0.85 0.54 0.55 0.80 0.81 0.91 0.98 1.00 1.03 1.17 1.19 1.23 1.30 1.35 1.35 1.32 1.37 1.42 1.45
0.61 0.62 0.63 0.61 0.62 0.62 0.44 0.39 0.56 0.54 0.44 0.48 0.59 0.61 0.57 0.53 0.50 0.42 0.28 0.18 0.15 0.27 0.21 0.25 0.22 0.22 0.26 0.18 0.20 0.19 0.13 0.16 0.23 0.26 0.26 0.29 0.24 0.24 0.14 0.18 0.22 0.28 0.31 0.28 0.28 0.29 0.34 0.32 0.29 0.30 0.29 0.27 0.28 0.28 0.33 0.31 0.26 0.22 0.28 0.26 0.23 0.23 0.24 0.24 0.26 0.26 0.26 0.28 0.53 0.80 0.69 0.58 0.59 0.75 0.92 1.01 1.00 1.02 1.07 1.12 1.19 1.25 1.30 1.31 1.33 1.37 1.41 1.45
0.60 0.61 0.62 0.61 0.62 0.61 0.50 0.53 0.51 0.44 0.47 0.56 0.62 0.58 0.56 0.51 0.48 0.42 0.31 0.14 0.13 0.31 0.23 0.22 0.24 0.28 0.27 0.25 0.25 0.20 0.19 0.22 0.17 0.23 0.26 0.29 0.27 0.24 0.17 0.15 0.18 0.23 0.25 0.25 0.17 0.26 0.26 0.25 0.27 0.29 0.27 0.26 0.26 0.29 0.33 0.35 0.27 0.24 0.28 0.28 0.24 0.25 0.26 0.27 0.26 0.26 0.27 0.25 0.25 0.47 0.77 0.57 0.63 0.73 0.92 1.02 0.94 0.95 0.97 1.04 1.12 1.20 1.27 1.29 1.31 1.37 1.42 1.46
0.59 0.60 0.61 0.61 0.61 0.61 0.63 0.56 0.51 0.44 0.55 0.60 0.58 0.55 0.51 0.52 0.45 0.35 0.25 0.14 0.32 0.27 0.36 0.24 0.33 0.28 0.26 0.26 0.23 0.22 0.21 0.21 0.16 0.24 0.27 0.27 0.28 0.20 0.17 0.18 0.19 0.23 0.23 0.22 0.18 0.25 0.28 0.27 0.25 0.26 0.25 0.24 0.29 0.31 0.33 0.35 0.30 0.30 0.28 0.30 0.28 0.26 0.27 0.29 0.27 0.25 0.25 0.22 0.20 0.29 0.45 0.54 0.50 0.57 0.74 0.93 0.91 0.86 0.87 0.95 1.05 1.16 1.22 1.25 1.28 1.36 1.44 1.48
0.58 0.58 0.60 0.61 0.58 0.57 0.58 0.61 0.52 0.56 0.58 0.58 0.54 0.55 0.55 0.46 0.39 0.26 0.17 0.15 0.29 0.22 0.28 0.29 0.27 0.24 0.25 0.21 0.20 0.22 0.20 0.20 0.20 0.21 0.23 0.21 0.21 0.24 0.22 0.22 0.17 0.14 0.16 0.19 0.17 0.21 0.26 0.29 0.28 0.26 0.25 0.27 0.30 0.31 0.32 0.34 0.34 0.37 0.32 0.28 0.28 0.25 0.25 0.28 0.28 0.26 0.23 0.19 0.20 0.23 0.35 0.32 0.27 0.43 0.58 0.77 0.79 0.78 0.84 0.95 1.05 1.16 1.25 1.30 1.33 1.35 1.40 1.45
0.58 0.58 0.59 0.61 0.48 0.52 0.50 0.43 0.51 0.58 0.59 0.57 0.56 0.54 0.47 0.42 0.34 0.23 0.13 0.20 0.29 0.26 0.28 0.26 0.24 0.27 0.24 0.21 0.19 0.21 0.21 0.20 0.19 0.19 0.17 0.19 0.19 0.23 0.22 0.21 0.25 0.19 0.17 0.17 0.16 0.18 0.24 0.27 0.25 0.26 0.31 0.32 0.31 0.30 0.33 0.35 0.35 0.34 0.30 0.26 0.27 0.25 0.25 0.23 0.24 0.26 0.18 0.16 0.21 0.24 0.23 0.23 0.17 0.27 0.51 0.65 0.78 0.82 0.83 0.83 0.89 1.01 1.10 1.18 1.26 1.33 1.37 1.42
0.58 0.58 0.60 0.57 0.57 0.61 0.43 0.38 0.47 0.55 0.55 0.55 0.54 0.45 0.44 0.31 0.33 0.23 0.21 0.33 0.22 0.25 0.24 0.23 0.24 0.24 0.22 0.22 0.21 0.20 0.18 0.19 0.19 0.18 0.16 0.20 0.22 0.22 0.22 0.19 0.21 0.14 0.13 0.15 0.15 0.17 0.16 0.24 0.27 0.28 0.31 0.32 0.31 0.28 0.31 0.34 0.34 0.31 0.29 0.26 0.22 0.21 0.20 0.15 0.17 0.16 0.16 0.15 0.21 0.24 0.24 0.21 0.20 0.24 0.40 0.53 0.62 0.77 0.91 0.90 0.89 0.94 1.04 1.11 1.19 1.27 1.32 1.39
0.61 0.61 0.62 0.61 0.61 0.54 0.54 0.55 0.58 0.57 0.56 0.55 0.51 0.50 0.38 0.24 0.17 0.22 0.23 0.26 0.22 0.27 0.24 0.28 0.24 0.22 0.21 0.21 0.20 0.20 0.20 0.17 0.19 0.19 0.18 0.20 0.24 0.23 0.27 0.24 0.24 0.20 0.14 0.18 0.16 0.15 0.15 0.22 0.25 0.26 0.27 0.33 0.31 0.24 0.25 0.26 0.30 0.29 0.26 0.24 0.20 0.19 0.17 0.14 0.15 0.16 0.16 0.19 0.23 0.23 0.25 0.21 0.23 0.26 0.37 0.44 0.52 0.66 0.86 0.99 1.03 1.02 1.04 1.10 1.16 1.26 1.32 1.37
0.65 0.66 0.60 0.65 0.64 0.62 0.60 0.62 0.60 0.60 0.56 0.57 0.52 0.42 0.31 0.19 0.19 0.27 0.24 0.24 0.23 0.28 0.27 0.26 0.27 0.25 0.23 0.19 0.19 0.20 0.17 0.19 0.18 0.19 0.21 0.22 0.25 0.22 0.23 0.26 0.26 0.23 0.21 0.20 0.15 0.16 0.13 0.12 0.20 0.26 0.24 0.31 0.28 0.26 0.25 0.25 0.28 0.29 0.30 0.26 0.23 0.22 0.19 0.15 0.15 0.13 0.12 0.14 0.18 0.25 0.21 0.20 0.20 0.24 0.32 0.40 0.47 0.60 0.78 0.94 1.01 1.04 1.09 1.15 1.21 1.25 1.30 1.34
0.68 0.69 0.69 0.70 0.70 0.68 0.65 0.64 0.62 0.64 0.63 0.59 0.43 0.31 0.21 0.20 0.24 0.23 0.24 0.25 0.26 0.26 0.24 0.27 0.25 0.23 0.20 0.21 0.22 0.23 0.20 0.17 0.20 0.23 0.21 0.21 0.21 0.21 0.20 0.21 0.25 0.24 0.23 0.16 0.19 0.18 0.16 0.15 0.21 0.30 0.28 0.27 0.26 0.28 0.29 0.30 0.29 0.30 0.31 0.30 0.25 0.23 0.27 0.19 0.21 0.18 0.16 0.15 0.13 0.18 0.19 0.23 0.22 0.30 0.32 0.36 0.42 0.48 0.61 0.76 0.89 0.95 1.03 1.14 1.20 1.21 1.24 1.29
0.69 0.64 0.68 0.57 0.60 0.57 0.64 0.63 0.65 0.70 0.63 0.48 0.35 0.24 0.22 0.25 0.23 0.28 0.27 0.30 0.28 0.26 0.25 0.26 0.24 0.23 0.20 0.20 0.23 0.21 0.25 0.20 0.20 0.24 0.21 0.22 0.23 0.21 0.23 0.23 0.22 0.24 0.22 0.17 0.20 0.15 0.17 0.15 0.22 0.27 0.28 0.26 0.28 0.29 0.29 0.32 0.23 0.31 0.29 0.24 0.27 0.32 0.28 0.23 0.23 0.24 0.22 0.18 0.14 0.18 0.19 0.23 0.28 0.29 0.32 0.32 0.34 0.39 0.49 0.61 0.73 0.82 0.90 1.00 1.07 1.14 1.20 1.26
0.60 0.63 0.50 0.54 0.53 0.55 0.62 0.67 0.72 0.67 0.59 0.45 0.33 0.24 0.27 0.29 0.31 0.31 0.33 0.29 0.29 0.28 0.26 0.22 0.22 0.21 0.19 0.19 0.21 0.21 0.21 0.21 0.21 0.21 0.17 0.21 0.19 0.22 0.23 0.24 0.26 0.25 0.24 0.21 0.19 0.22 0.15 0.17 0.22 0.23 0.24 0.28 0.30 0.29 0.30 0.32 0.33 0.31 0.25 0.29 0.32 0.33 0.31 0.26 0.19 0.21 0.18 0.15 0.16 0.18 0.16 0.17 0.21 0.19 0.29 0.31 0.30 0.34 0.40 0.48 0.56 0.64 0.76 0.82 0.91 1.07 1.14 1.21
0.62 0.59 0.54 0.49 0.50 0.57 0.65 0.70 0.69 0.60 0.49 0.39 0.30 0.28 0.31 0.27 0.33 0.31 0.32 0.33 0.31 0.28 0.26 0.23 0.22 0.24 0.20 0.21 0.19 0.21 0.22 0.20 0.20 0.21 0.19 0.21 0.18 0.27 0.24 0.23 0.26 0.24 0.25 0.26 0.19 0.20 0.20 0.14 0.19 0.23 0.24 0.26 0.29 0.28 0.30 0.33 0.34 0.30 0.28 0.33 0.25 0.22 0.21 0.27 0.23 0.16 0.16 0.15 0.17 0.19 0.19 0.19 0.22 0.20 0.22 0.23 0.29 0.31 0.37 0.44 0.47 0.55 0.67 0.72 0.76 0.90 1.08 1.18
0.66 0.58 0.41 0.47 0.54 0.59 0.62 0.67 0.60 0.53 0.43 0.31 0.28 0.26 0.31 0.30 0.34 0.31 0.32 0.32 0.32 0.29 0.25 0.25 0.22 0.24 0.24 0.22 0.22 0.23 0.22 0.19 0.21 0.20 0.17 0.20 0.19 0.26 0.25 0.26 0.24 0.26 0.26 0.25 0.21 0.22 0.21 0.13 0.16 0.23 0.22 0.25 0.25 0.27 0.24 0.27 0.32 0.33 0.34 0.31 0.34 0.29 0.27 0.25 0.24 0.25 0.21 0.17 0.18 0.18 0.20 0.18 0.27 0.28 0.30 0.25 0.22 0.30 0.38 0.41 0.42 0.50 0.60 0.65 0.73 0.82 0.96 1.09
0.56 0.46 0.40 0.54 0.58 0.60 0.62 0.62 0.52 0.47 0.39 0.29 0.30 0.29 0.33 0.31 0.33 0.33 0.31 0.30 0.29 0.29 0.28 0.26 0.26 0.22 0.23 0.23 0.24 0.22 0.24 0.23 0.22 0.22 0.21 0.23 0.21 0.28 0.25 0.28 0.24 0.24 0.26 0.27 0.23 0.24 0.18 0.21 0.11 0.19 0.24 0.23 0.18 0.25 0.25 0.26 0.25 0.25 0.28 0.31 0.34 0.34 0.36 0.29 0.29 0.24 0.22 0.19 0.18 0.18 0.18 0.22 0.37 0.56 0.51 0.50 0.49 0.45 0.40 0.36 0.41 0.46 0.55 0.64 0.69 0.75 0.91 1.00
0.61 0.48 0.41 0.54 0.57 0.61 0.59 0.50 0.41 0.36 0.33 0.35 0.35 0.34 0.35 0.32 0.33 0.34 0.33 0.31 0.30 0.32 0.29 0.27 0.26 0.23 0.23 0.22 0.22 0.25 0.23 0.23 0.23 0.22 0.22 0.23 0.23 0.20 0.28 0.27 0.27 0.25 0.26 0.24 0.23 0.24 0.19 0.18 0.12 0.16 0.19 0.19 0.21 0.26 0.27 0.28 0.28 0.25 0.27 0.33 0.34 0.30 0.26 0.23 0.22 0.31 0.28 0.24 0.20 0.18 0.18 0.27 0.53 0.62 0.64 0.61 0.57 0.51 0.47 0.39 0.38 0.43 0.53 0.65 0.69 0.70 0.82 0.93
0.50 0.36 0.39 0.56 0.62 0.57 0.49 0.38 0.37 0.41 0.33 0.30 0.30 0.35 0.35 0.36 0.31 0.31 0.29 0.28 0.29 0.28 0.31 0.29 0.28 0.25 0.24 0.24 0.24 0.24 0.23 0.23 0.23 0.23 0.24 0.22 0.27 0.25 0.28 0.31 0.29 0.28 0.24 0.21 0.22 0.26 0.24 0.21 0.17 0.12 0.18 0.21 0.22 0.24 0.28 0.32 0.33 0.33 0.33 0.33 0.35 0.34 0.32 0.27 0.21 0.26 0.29 0.28 0.29 0.25 0.20 0.28 0.51 0.58 0.60 0.70 0.72 0.68 0.61 0.41 0.35 0.39 0.52 0.61 0.62 0.66 0.81 0.94
0.48 0.42 0.58 0.66 0.64 0.53 0.42 0.35 0.39 0.34 0.30 0.31 0.35 0.34 0.34 0.31 0.28 0.28 0.26 0.27 0.25 0.28 0.27 0.27 0.27 0.25 0.26 0.26 0.25 0.24 0.24 0.24 0.24 0.22 0.25 0.24 0.24 0.28 0.30 0.30 0.31 0.29 0.27 0.24 0.24 0.24 0.24 0.18 0.14 0.13 0.14 0.18 0.22 0.26 0.30 0.30 0.30 0.28 0.32 0.35 0.35 0.31 0.33 0.31 0.30 0.33 0.29 0.30 0.26 0.25 0.19 0.28 0.44 0.57 0.65 0.77 0.84 0.78 0.70 0.58 0.38 0.41 0.46 0.53 0.54 0.63 0.83 0.97
0.53 0.51 0.50 0.57 0.59 0.52 0.39 0.28 0.29 0.31 0.32 0.33 0.32 0.30 0.33 0.30 0.28 0.27 0.26 0.26 0.25 0.26 0.25 0.26 0.28 0.30 0.28 0.30 0.27 0.25 0.26 0.21 0.26 0.25 0.24 0.26 0.25 0.33 0.32 0.29 0.29 0.25 0.24 0.24 0.20 0.26 0.14 0.18 0.14 0.09 0.08 0.08 0.14 0.28 0.26 0.29 0.29 0.28 0.27 0.32 0.35 0.35 0.33 0.33 0.37 0.38 0.31 0.34 0.31 0.26 0.16 0.24 0.36 0.52 0.64 0.83 0.84 0.77 0.75 0.71 0.55 0.45 0.46 0.49 0.55 0.69 0.86 0.97
0.54 0.58 0.53 0.49 0.51 0.46 0.36 0.36 0.34 0.32 0.30 0.30 0.29 0.28 0.29 0.29 0.31 0.29 0.27 0.25 0.29 0.29 0.28 0.26 0.29 0.30 0.28 0.31 0.28 0.28 0.28 0.25 0.22 0.28 0.28 0.27 0.28 0.33 0.33 0.31 0.31 0.30 0.33 0.34 0.30 0.28 0.18 0.16 0.13 0.07 0.06 0.05 0.06 0.11 0.17 0.21 0.23 0.26 0.29 0.29 0.32 0.33 0.32 0.31 0.28 0.31 0.28 0.32 0.32 0.28 0.22 0.33 0.45 0.55 0.60 0.80 0.87 0.83 0.86 0.87 0.77 0.66 0.63 0.58 0.62 0.76 0.88 1.00
0.44 0.34 0.43 0.44 0.47 0.43 0.42 0.43 0.39 0.36 0.33 0.31 0.29 0.30 0.29 0.26 0.29 0.31 0.31 0.28 0.30 0.30 0.31 0.31 0.31 0.29 0.27 0.27 0.25 0.24 0.25 0.29 0.23 0.23 0.24 0.25 0.28 0.31 0.33 0.31 0.29 0.33 0.35 0.35 0.31 0.25 0.18 0.18 0.16 0.14 0.11 0.09 0.11 0.15 0.21 0.25 0.25 0.24 0.27 0.28 0.27 0.31 0.34 0.32 0.31 0.29 0.27 0.31 0.30 0.32 0.31 0.35 0.41 0.48 0.53 0.82 0.92 0.91 0.86 0.89 0.87 0.83 0.79 0.82 0.92 0.95 1.00 1.08
0.52 0.37 0.40 0.35 0.48 0.39 0.37 0.40 0.38 0.38 0.34 0.35 0.29 0.33 0.29 0.29 0.30 0.30 0.34 0.28 0.31 0.30 0.30 0.30 0.28 0.24 0.25 0.24 0.24 0.25 0.27 0.26 0.28 0.24 0.25 0.24 0.27 0.28 0.32 0.30 0.30 0.31 0.28 0.27 0.28 0.24 0.20 0.14 0.16 0.15 0.15 0.15 0.16 0.15 0.19 0.21 0.22 0.24 0.27 0.29 0.29 0.28 0.32 0.32 0.30 0.27 0.32 0.31 0.28 0.36 0.34 0.35 0.41 0.53 0.71 0.86 0.93 0.95 1.00 0.92 0.95 1.06 1.12 1.08 1.11 1.26 1.39 1.39
0.35 0.40 0.48 0.48 0.42 0.33 0.35 0.34 0.40 0.37 0.38 0.37 0.33 0.35 0.31 0.30 0.29 0.27 0.32 0.33 0.32 0.33 0.27 0.29 0.28 0.28 0.26 0.24 0.25 0.22 0.26 0.25 0.27 0.23 0.28 0.27 0.24 0.24 0.23 0.27 0.24 0.27 0.26 0.23 0.27 0.22 0.18 0.14 0.17 0.16 0.16 0.17 0.18 0.18 0.19 0.18 0.18 0.22 0.25 0.29 0.29 0.29 0.30 0.31 0.31 0.32 0.32 0.30 0.30 0.34 0.35 0.38 0.44 0.64 0.86 0.82 0.94 0.96 1.01 1.06 1.06 1.21 1.23 1.17 1.20 1.23 1.28 1.28
0.49 0.48 0.48 0.55 0.41 0.43 0.43 0.41 0.41 0.38 0.37 0.37 0.34 0.34 0.31 0.31 0.28 0.31 0.30 0.29 0.30 0.29 0.30 0.23 0.25 0.27 0.27 0.27 0.25 0.23 0.26 0.20 0.22 0.27 0.26 0.25 0.23 0.22 0.21 0.24 0.30 0.30 0.27 0.23 0.24 0.26 0.20 0.17 0.19 0.19 0.17 0.16 0.18 0.18 0.19 0.17 0.18 0.18 0.21 0.26 0.32 0.30 0.30 0.32 0.33 0.34 0.33 0.32 0.36 0.37 0.36 0.41 0.47 0.76 0.86 0.93 0.89 0.95 1.07 1.22 1.28 1.15 1.10 1.11 1.16 1.21 1.25 1.33
0.41 0.44 0.40 0.52 0.48 0.43 0.41 0.39 0.38 0.36 0.32 0.35 0.31 0.32 0.33 0.31 0.29 0.32 0.33 0.29 0.25 0.27 0.33 0.27 0.27 0.29 0.30 0.30 0.27 0.24 0.28 0.29 0.28 0.24 0.30 0.25 0.25 0.25 0.21 0.22 0.23 0.26 0.25 0.22 0.22 0.28 0.20 0.17 0.21 0.21 0.17 0.16 0.18 0.20 0.20 0.19 0.18 0.17 0.18 0.20 0.27 0.32 0.30 0.31 0.32 0.34 0.35 0.34 0.37 0.40 0.38 0.40 0.59 0.78 0.91 0.98 0.96 0.93 0.92 1.09 1.25 1.25 1.21 1.13 1.11 1.12 1.20 1.31
0.56 0.62 0.60 0.47 0.37 0.38 0.40 0.38 0.36 0.34 0.32 0.34 0.31 0.32 0.32 0.31 0.28 0.32 0.31 0.35 0.30 0.28 0.30 0.28 0.29 0.31 0.31 0.30 0.29 0.28 0.32 0.33 0.33 0.31 0.31 0.28 0.21 0.27 0.22 0.23 0.26 0.21 0.23 0.22 0.23 0.24 0.22 0.19 0.21 0.20 0.16 0.15 0.20 0.20 0.20 0.20 0.18 0.16 0.16 0.16 0.16 0.23 0.28 0.29 0.30 0.32 0.33 0.32 0.34 0.36 0.36 0.41 0.50 0.76 0.86 0.91 0.91 0.88 0.87 0.99 1.17 1.19 1.19 1.10 1.12 1.13 1.15 1.20
0.63 0.66 0.68 0.53 0.35 0.37 0.34 0.35 0.34 0.34 0.28 0.31 0.32 0.31 0.30 0.30 0.32 0.32 0.27 0.34 0.35 0.35 0.33 0.33 0.33 0.31 0.31 0.30 0.28 0.30 0.33 0.34 0.35 0.35 0.32 0.30 0.29 0.28 0.29 0.28 0.28 0.25 0.25 0.25 0.29 0.24 0.24 0.20 0.17 0.17 0.14 0.14 0.20 0.22 0.21 0.21 0.17 0.11 0.11 0.15 0.18 0.19 0.26 0.34 0.34 0.41 0.52 0.54 0.41 0.37 0.38 0.45 0.55 0.73 0.74 0.81 0.85 0.88 0.92 0.94 1.05 1.16 1.20 1.16 1.09 1.15 1.15 1.13
Wind_Speed
16 16 16 15 15 15 14 14 14 14 13 13 13 13 13 13 13 13 13 13 13 12 12 11 11 11 10 10 10 9 9 9 9 10 11 10 11 12 12 13 14 16 16 15 15 15 15 15 15 14 13 11 10 9 8 8 7 5 3 2 1 0 1 1 2 2 3 4 5 5 6 7 6 7 7 8 7 7 7 6 8 8 9 12 14 19 19 18
17 17 16 16 15 15 15 15 14 14 14 13 13 13 13 13 13 13 13 13 13 13 12 12 11 11 11 10 10 10 9 10 10 10 11 10 11 13 12 12 13 15 15 15 16 16 15 15 15 14 13 11 11 10 8 8 8 6 3 2 2 1 1 1 2 2 3 5 5 6 6 6 7 7 7 7 8 8 7 6 8 10 11 14 17 19 18 18
17 17 17 16 16 16 15 15 15 14 14 14 14 13 14 14 14 14 14 13 13 13 13 12 11 11 11 10 10 10 10 10 9 10 10 10 12 13 13 12 12 14 15 15 16 16 15 15 16 15 13 12 12 11 9 9 9 7 5 3 2 2 1 2 2 2 4 6 6 6 7 7 7 8 7 7 8 8 7 6 9 11 13 16 18 19 18 18
18 18 17 17 17 16 16 16 16 15 15 14 14 14 14 14 14 14 14 14 13 13 13 12 11 11 11 10 10 9 9 9 9 9 9 10 12 13 13 13 13 14 15 15 15 16 15 15 16 16 14 13 13 11 10 9 8 7 7 4 3 3 2 1 2 4 5 6 7 7 7 6 7 7 7 7 8 7 6 6 9 13 15 17 17 18 18 18
19 18 18 18 17 17 17 17 16 16 16 16 15 15 15 15 15 15 14 14 13 13 13 12 11 11 11 10 10 9 9 9 10 10 10 10 12 13 13 14 14 14 14 15 15 16 15 15 15 16 15 14 13 11 11 11 10 8 7 6 4 3 3 2 3 4 6 6 6 7 7 7 8 7 8 8 7 7 7 7 11 14 15 16 17 18 18 18
20 19 19 18 18 18 18 17 17 17 17 17 16 16 16 16 16 15 15 14 14 13 12 12 11 11 10 10 10 10 10 10 11 11 11 11 12 13 13 14 15 14 14 15 16 15 16 15 15 15 16 14 13 12 11 12 11 9 7 8 7 6 4 3 4 5 5 6 5 7 7 8 8 7 8 8 7 8 7 9 13 13 14 16 16 17 17 18
20 20 20 19 19 19 19 18 18 18 18 17 17 17 17 16 16 16 15 14 14 13 13 11 11 11 11 10 10 10 10 11 11 11 11 11 11 12 13 14 15 14 14 15 16 16 16 16 15 15 15 14 14 13 12 12 12 11 9 8 9 8 7 6 6 6 6 6 6 7 7 7 8 6 8 8 8 8 6 10 15 13 13 15 15 16 16 17
21 21 20 20 20 20 20 19 19 19 19 18 18 18 17 17 16 16 15 14 14 13 13 12 11 11 11 10 11 11 11 12 13 11 11 10 11 12 13 14 15 15 15 16 17 17 16 16 16 15 14 14 13 13 13 12 12 12 10 9 9 9 9 9 7 6 6 5 7 8 6 6 6 5 7 9 9 8 7 12 15 13 13 14 14 15 15 16
22 22 21 21 21 21 20 20 20 20 20 19 19 18 18 17 17 16 15 15 14 13 13 12 12 11 11 11 11 11 11 12 13 12 11 11 10 12 14 15 16 16 16 16 17 17 16 16 17 15 13 13 14 13 13 12 12 11 10 10 9 9 10 10 9 8 7 6 7 7 5 5 5 5 7 8 8 7 8 13 15 13 13 13 14 15 14 15
23 22 22 21 21 21 21 20 20 20 20 20 19 19 18 18 17 17 16 15 14 14 14 13 12 12 11 11 11 11 12 12 12 13 12 12 11 11 14 15 16 17 16 17 17 17 17 16 17 15 13 13 13 13 13 13 12 11 11 11 10 10 11 12 11 11 8 7 8 6 4 5 6 6 6 7 8 8 9 13 15 14 13 13 14 15 14 15
23 22 22 22 22 22 21 21 21 20 20 20 19 19 19 18 17 17 16 15 15 15 14 13 13 12 12 12 12 12 12 11 12 13 13 13 12 12 13 15 16 17 17 17 18 18 18 17 15 13 12 12 12 13 13 13 12 12 12 11 11 11 12 13 13 13 9 7 9 7 5 5 5 5 5 8 9 9 10 12 14 14 13 14 14 15 14 14
23 23 23 22 22 22 22 22 21 21 20 20 20 19 19 18 18 17 16 16 15 15 14 13 12 12 11 12 13 13 13 12 12 13 14 13 13 13 13 14 15 17 18 17 18 19 18 17 15 14 14 12 11 11 12 12 11 12 11 11 12 11 11 13 14 14 11 9 10 8 5 5 5 6 6 9 10 10 11 12 14 14 13 14 14 15 15 14
23 23 22 22 22 22 22 22 22 21 21 21 20 20 19 18 17 17 16 15 15 14 14 13 12 12 12 13 14 13 12 12 12 13 14 14 14 14 14 14 14 16 18 18 19 19 19 17 15 16 16 14 13 12 11 11 11 11 11 11 12 10 11 14 15 15 11 10 13 10 6 6 7 8 9 10 11 11 12 13 14 13 13 14 14 14 15 15
23 22 22 22 22 22 22 22 22 22 21 21 21 20 19 18 17 17 16 15 15 14 14 13 12 12 12 13 14 13 13 13 12 13 14 14 14 15 15 15 15 15 17 19 19 18 18 17 16 17 17 17 15 13 12 10 10 10 10 11 12 11 12 13 15 15 11 11 15 10 7 8 9 10 12 12 12 13 13 13 15 14 14 14 14 15 15 16
23 22 22 22 22 22 22 22 22 21 21 21 20 20 19 19 18 17 16 15 15 14 14 13 13 12 12 13 13 13 13 12 13 13 14 14 14 15 16 16 16 16 17 19 19 18 18 18 17 17 17 17 15 13 12 11 10 10 9 10 11 12 13 13 15 15 12 12 15 11 7 9 10 11 13 13 13 14 14 14 15 15 14 15 14 15 16 16
23 22 21 21 22 21 22 22 21 21 21 20 20 19 19 19 18 17 16 15 15 14 14 13 13 13 12 13 13 12 13 12 12 13 14 14 15 15 16 17 17 17 18 18 19 18 18 17 16 17 17 16 15 13 12 12 11 10 10 10 11 12 13 13 15 16 14 12 15 13 8 8 10 12 13 15 15 14 14 14 15 15 15 15 15 15 16 16
23 23 22 21 21 21 21 21 21 20 20 19 19 18 18 17 17 16 15 14 14 14 14 14 13 13 12 13 13 13 13 12 12 12 13 14 15 15 15 16 17 17 18 18 19 19 18 17 16 16 16 16 15 14 13 13 13 12 11 11 11 12 13 13 14 16 15 14 16 16 12 9 10 11 13 15 16 15 14 15 16 16 16 16 15 15 16 17
23 23 22 21 21 21 20 20 20 19 18 17 17 17 16 16 15 14 13 13 14 14 14 15 14 13 13 13 12 13 12 12 11 11 12 13 14 15 15 16 16 17 18 18 18 19 18 17 15 15 15 16 15 14 14 14 15 14 12 11 11 11 13 13 13 14 16 16 17 17 15 13 12 12 13 14 15 15 15 15 16 16 16 16 16 16 17 17
24 23 22 21 21 21 20 20 19 18 17 16 15 15 14 13 13 13 13 13 14 14 14 15 14 13 13 14 13 13 13 13 12 12 13 13 13 14 14 15 16 17 17 17 18 18 18 16 16 15 15 16 16 16 15 14 14 15 14 12 11 11 13 13 12 13 16 16 18 19 17 15 14 14 14 14 15 15 15 15 16 17 17 17 16 17 17 17
24 23 22 21 21 20 20 19 18 17 16 14 13 13 12 12 12 13 14 15 15 16 16 16 16 16 15 15 14 13 13 13 13 13 13 13 13 14 14 14 15 16 17 17 18 18 18 17 17 17 17 17 17 17 17 16 15 15 15 14 13 12 13 13 12 12 15 15 17 19 18 17 17 15 14 14 14 15 16 16 16 17 17 17 17 18 18 18
24 23 22 21 20 20 19 19 17 17 15 13 12 11 11 11 12 13 14 15 16 16 17 18 18 18 17 17 15 14 13 14 14 14 13 13 13 13 15 15 14 15 17 17 17 17 18 18 18 18 17 17 17 17 17 17 17 16 16 15 15 14 13 13 12 12 14 14 16 18 18 18 18 16 15 15 14 14 16 17 17 17 17 18 19 19 18 18
24 23 22 21 20 20 19 18 17 16 14 13 12 12 12 12 12 13 13 15 16 16 17 18 18 18 18 18 17 14 14 14 14 14 14 14 13 14 15 15 15 15 16 17 16 16 17 18 18 18 18 18 17 17 17 17 18 17 16 15 16 15 13 13 12 11 12 14 16 19 19 19 18 17 16 16 14 14 17 17 17 18 17 18 19 19 19 18
24 24 23 21 20 20 18 18 17 14 13 12 12 12 13 12 12 13 13 14 16 16 16 17 17 16 16 15 15 14 13 14 14 14 15 14 14 14 14 14 15 16 16 17 17 17 17 17 18 18 18 18 18 18 18 18 17 17 17 16 16 16 13 13 12 9 10 14 17 19 18 17 17 17 17 16 15 14 16 17 17 18 18 19 20 20 20 20
24 24 23 22 21 19 18 18 15 13 12 12 12 11 11 11 11 12 12 13 14 15 15 16 15 15 14 14 14 13 13 14 13 14 15 14 14 14 14 15 15 16 16 18 18 18 18 18 18 18 18 18 18 18 19 18 17 17 18 17 17 17 15 15 12 10 10 11 15 18 14 15 18 18 18 17 15 14 15 17 17 18 18 18 20 20 21 21
24 24 23 22 20 19 18 15 12 12 12 11 10 10 9 10 10 10 11 11 12 14 14 14 14 13 13 13 14 14 13 13 13 14 14 13 13 13 14 15 15 16 17 18 19 18 18 18 18 18 18 18 18 18 18 18 18 18 18 19 19 18 17 16 13 12 10 8 13 18 13 16 19 20 19 17 16 15 15 16 17 19 19 19 20 20 21 21
24 23 22 21 19 19 15 11 11 12 12 10 9 10 9 9 9 9 9 9 10 12 12 12 12 12 12 12 14 13 12 13 13 13 13 13 13 14 15 15 15 16 16 17 17 17 17 18 18 18 18 19 18 18 18 18 19 18 18 18 20 19 18 17 14 13 11 9 13 17 14 15 19 20 19 18 17 17 16 15 17 18 19 20 20 20 21 22
24 23 22 20 18 16 12 10 11 11 10 10 10 10 10 10 9 8 9 8 9 11 11 11 11 10 11 11 12 12 12 14 13 13 13 13 12 13 15 16 15 15 16 15 16 17 16 17 18 17 18 19 19 18 17 17 18 19 18 18 19 19 18 18 16 15 15 12 12 16 13 12 17 20 20 19 18 17 17 16 17 18 20 20 21 21 21 22
23 22 20 18 16 14 11 10 10 9 8 9 10 10 10 9 8 8 8 8 9 10 11 11 11 10 10 11 12 12 13 13 13 13 14 13 12 11 13 16 16 17 16 15 16 17 16 16 16 16 17 18 18 19 19 18 18 18 19 19 19 19 18 17 16 16 16 14 15 17 15 13 15 18 19 20 20 19 19 19 18 19 20 21 21 21 22 23
22 20 19 17 15 12 9 8 9 8 8 9 9 9 9 8 7 7 7 8 9 10 10 10 10 11 10 10 11 13 12 12 13 13 13 12 12 11 12 15 16 16 16 16 17 18 17 17 16 15 16 17 17 19 19 19 18 17 18 20 19 19 19 16 16 16 15 15 17 19 19 16 15 16 18 20 21 20 19 18 18 19 20 21 21 22 23 23
21 19 17 15 12 10 8 8 8 8 8 8 8 8 7 6 6 6 6 7 8 9 10 10 10 10 10 9 10 12 11 12 13 12 12 12 12 11 12 13 13 14 15 15 16 18 18 18 17 16 16 16 17 18 18 19 19 17 17 19 19 19 18 17 16 16 15 16 17 18 20 19 16 15 18 20 21 20 17 16 17 19 20 21 22 23 23 24
21 18 16 13 10 9 8 7 8 8 8 8 7 6 4 4 5 5 6 7 8 8 9 9 9 10 10 10 11 11 10 11 11 10 10 11 10 10 12 12 12 13 13 14 15 17 18 17 17 18 16 14 16 17 17 18 18 18 17 17 18 18 18 17 16 16 17 17 18 17 17 18 17 17 17 19 21 20 17 16 16 18 20 21 22 23 24 24
20 17 14 11 8 8 7 6 6 6 6 6 5 3 4 5 4 4 6 7 7 8 9 9 8 8 8 9 10 9 10 10 9 9 9 10 10 10 10 11 12 12 12 13 13 14 16 17 17 17 15 12 14 16 16 16 16 17 17 16 16 16 16 17 17 17 18 19 19 18 16 16 18 19 18 20 20 20 18 17 16 17 19 21 21 22 23 24
19 16 12 9 7 7 6 5 5 5 4 3 3 3 5 5 3 3 4 6 7 8 8 8 7 7 7 8 9 9 9 8 8 8 9 9 10 10 9 9 10 12 12 12 12 12 14 16 15 15 14 12 12 13 14 16 16 17 17 17 17 16 16 17 18 17 18 19 20 19 17 18 19 19 19 21 21 19 19 20 19 19 20 21 21 21 22 24
18 14 10 8 6 6 5 4 3 2 2 2 2 4 4 4 3 3 3 4 5 6 6 7 8 7 7 7 9 9 8 8 8 8 8 9 10 9 9 9 9 11 13 12 12 12 12 15 14 13 14 14 12 12 14 17 19 19 18 18 18 18 17 17 17 18 18 18 19 19 17 18 19 19 20 21 21 20 19 20 20 20 21 21 21 21 22 23
16 12 9 8 6 5 4 2 1 1 0 0 3 4 4 3 3 3 3 4 5 4 5 6 7 7 7 8 8 8 9 9 8 7 8 9 9 8 9 9 9 10 12 12 13 13 13 16 16 14 15 14 12 13 14 15 17 18 17 16 18 19 18 17 17 18 17 16 18 19 19 19 19 20 20 20 21 20 20 20 20 20 20 20 21 22 23 24
14 11 8 6 5 3 1 0 1 2 2 2 3 4 3 2 2 3 4 5 5 4 5 4 4 5 7 8 7 7 8 9 8 7 9 9 8 7 8 9 8 9 10 11 13 13 13 16 16 15 16 13 11 13 12 12 15 17 15 15 18 20 18 18 18 17 16 16 18 20 21 20 18 19 20 20 21 21 22 22 22 22 21 20 21 23 24 24
12 10 7 6 4 2 2 3 3 3 3 3 4 3 2 2 2 3 4 5 5 4 3 3 3 4 6 7 6 6 7 8 8 7 9 10 8 8 9 9 8 8 9 11 12 13 14 16 16 15 15 13 13 15 13 12 12 14 15 16 18 19 18 18 18 16 16 17 18 19 20 19 17 18 20 20 21 22 24 24 24 23 22 22 22 24 25 25
11 9 7 6 5 4 3 4 3 2 2 3 4 3 1 0 1 2 3 4 5 4 4 4 3 4 5 5 5 5 6 7 7 7 8 9 9 9 9 9 9 9 9 10 12 13 13 15 16 15 14 15 14 14 14 13 11 13 15 16 16 17 17 17 18 18 17 17 17 17 18 18 17 17 18 20 22 23 24 25 25 24 24 24 23 24 26 26
10 8 7 6 5 4 3 3 2 2 2 2 3 2 1 1 2 2 2 1 4 5 4 4 4 4 5 4 5 4 4 5 6 7 7 7 9 9 9 10 10 9 8 8 10 12 12 13 17 16 14 15 15 13 13 14 13 14 13 12 13 16 17 17 18 18 18 17 17 16 15 15 15 14 15 17 20 21 23 25 26 26 26 26 25 25 27 27
9 7 6 6 5 4 3 2 2 2 2 1 2 1 0 1 2 3 4 2 2 4 4 4 4 5 4 4 4 4 3 3 4 6 6 6 8 9 8 9 10 10 9 8 9 12 12 12 16 18 16 15 15 14 14 14 15 15 13 11 11 13 17 18 18 18 17 17 17 16 15 14 11 11 11 12 16 19 22 24 26 27 29 29 27 26 27 28
10 8 6 6 6 5 4 3 2 2 1 0 0 0 1 1 1 2 4 3 1 2 3 4 4 4 4 5 5 5 4 3 3 4 5 6 7 8 8 8 9 10 10 9 9 11 12 13 15 17 17 17 15 16 17 17 16 15 14 12 11 12 14 16 17 16 16 17 18 18 18 14 9 9 10 11 14 19 22 25 27 29 30 30 30 29 28 29
11 8 7 7 6 5 5 3 2 2 1 1 1 1 2 1 1 2 2 1 1 1 3 3 3 4 4 5 5 5 5 4 4 4 5 5 5 7 8 8 9 9 9 10 10 11 12 13 14 16 19 20 19 19 19 17 16 15 13 12 13 13 13 15 18 17 16 17 18 19 20 16 11 10 10 11 14 17 20 22 27 29 29 30 30 30 29 29
11 9 8 9 7 5 5 5 4 3 2 3 4 3 3 2 2 1 1 0 1 2 2 3 3 3 3 4 5 5 5 5 5 5 5 5 5 6 7 7 8 10 10 11 11 12 12 13 13 15 18 20 19 18 18 16 15 15 15 13 13 14 13 16 19 18 17 17 16 18 21 18 13 10 10 12 13 14 16 18 23 28 29 29 29 29 29 30
9 8 9 10 9 7 6 6 5 5 4 4 5 4 3 3 3 2 1 1 1 1 2 2 3 3 4 4 4 5 6 6 6 6 6 7 7 6 7 8 9 10 10 11 11 12 12 13 13 13 14 16 16 15 17 17 16 17 18 16 15 15 15 16 18 16 17 17 15 18 21 18 15 13 11 12 12 11 12 13 17 22 25 27 28 28 29 29
8 7 8 10 10 8 6 5 5 5 5 5 6 5 4 3 4 4 2 1 0 0 1 2 2 3 4 5 4 4 5 7 8 8 8 9 9 9 9 9 10 10 9 9 10 11 12 13 13 12 13 15 16 16 17 19 19 19 20 19 18 17 15 16 17 16 17 17 16 19 20 17 15 13 12 12 11 10 10 10 11 15 18 22 25 27 27 28
7 7 7 7 9 9 7 5 5 4 3 4 5 5 5 4 3 5 4 2 1 1 2 2 3 3 4 5 5 5 6 7 9 9 10 10 11 11 11 11 11 10 9 9 10 11 12 12 13 14 15 17 18 19 19 21 22 22 22 22 21 20 18 18 18 18 19 18 18 20 19 16 15 13 12 11 9 8 8 9 10 11 13 17 20 23 24 25
7 6 7 6 6 8 7 6 6 4 3 2 3 4 5 4 3 4 5 4 4 3 3 3 3 3 4 5 6 7 7 7 8 9 10 11 12 12 12 12 11 9 10 11 12 12 12 13 14 16 17 18 19 20 20 21 23 24 23 23 23 23 22 20 21 21 20 19 20 20 17 15 15 13 11 9 8 7 8 10 11 11 13 15 18 20 21 21
9 7 8 7 5 6 6 6 6 6 5 3 2 3 4 5 4 4 4 4 5 5 4 3 4 3 3 4 6 8 8 8 8 9 10 10 11 11 12 12 11 10 10 12 13 12 13 15 16 17 18 18 19 19 20 21 23 24 24 23 23 24 24 23 24 23 21 21 23 22 18 17 16 13 11 10 9 9 7 7 11 13 13 15 17 18 19 19
11 9 8 9 7 6 7 7 7 7 6 4 3 3 4 4 4 4 5 4 4 5 4 3 5 5 5 5 5 7 8 8 8 8 9 9 10 10 10 11 11 11 11 12 13 13 13 16 17 18 19 19 19 20 20 21 23 24 24 24 24 25 26 26 26 25 24 24 25 23 21 19 17 15 14 12 11 12 9 4 5 11 14 15 16 17 18 18
13 10 9 9 8 8 8 7 6 6 6 5 4 4 5 5 5 5 5 4 4 5 5 4 5 6 6 5 5 6 7 7 8 9 8 8 9 10 10 11 12 12 12 12 13 13 14 16 17 18 19 20 21 21 21 21 23 24 24 25 26 26 27 28 27 25 25 26 25 24 22 21 19 17 16 14 13 14 13 6 3 7 11 14 15 17 17 17
13 11 10 8 8 8 8 7 6 5 5 5 4 4 5 5 5 5 5 5 5 4 5 5 6 6 6 6 6 7 8 8 9 10 10 9 11 11 11 11 12 13 13 13 14 14 14 16 17 17 19 21 20 20 21 22 23 25 25 25 26 27 27 27 27 26 26 26 26 25 24 23 23 20 18 16 14 14 15 12 6 6 9 11 13 15 18 19
13 12 11 9 9 9 9 8 7 6 5 5 5 5 5 5 5 4 4 5 6 5 6 6 6 6 6 6 6 8 9 9 10 11 11 12 12 12 13 13 13 13 13 13 14 14 14 15 16 17 19 20 19 20 21 22 22 24 24 23 24 25 25 27 27 26 26 26 26 26 26 25 25 23 20 18 17 17 17 15 11 8 8 10 11 12 15 18
Wind_Direction
317 315 314 313 313 313 313 312 310 308 305 303 300 297 294 292 290 288 286 284 283 281 279 277 272 269 266 265 263 261 259 252 245 233 229 228 218 211 206 205 206 204 203 202 202 202 203 205 205 200 199 204 211 215 211 211 203 184 179 180 193 139 101 73 101 136 154 160 162 164 165 155 153 154 151 148 141 135 126 124 136 133 135 142 142 144 146 147
315 314 312 312 311 311 311 310 308 307 304 302 299 297 295 292 291 289 286 284 281 279 277 275 272 269 265 263 260 258 258 251 242 233 229 224 212 209 208 207 206 203 202 202 202 202 202 204 203 199 199 206 212 211 209 205 195 186 183 183 201 179 155 103 87 116 156 162 162 162 160 155 155 153 158 154 146 145 135 137 141 133 136 143 145 147 148 149
314 312 311 310 309 309 308 308 306 304 302 300 297 295 294 293 292 290 287 284 280 276 274 274 270 267 264 261 258 256 256 247 235 228 226 219 210 209 209 207 203 200 202 202 202 202 201 202 200 198 201 208 212 211 212 204 192 192 192 194 209 179 129 95 91 111 147 155 153 157 156 152 156 158 163 153 147 156 154 157 150 140 145 149 151 151 150 151
313 312 310 308 307 307 306 305 304 302 300 298 296 294 292 292 291 290 288 285 280 275 272 271 268 264 262 258 256 253 249 240 229 224 222 216 211 211 209 207 202 200 204 204 203 202 201 201 199 199 202 207 212 212 213 207 198 200 197 207 218 173 146 133 119 114 134 148 148 155 162 160 162 160 163 156 153 167 173 173 155 146 150 153 155 154 153 153
312 310 309 307 306 305 304 302 301 300 298 296 294 292 291 290 289 289 288 284 279 275 271 269 265 261 258 255 253 249 240 233 228 225 222 217 213 213 210 207 203 201 204 204 204 203 202 203 203 203 204 207 210 207 209 209 206 212 211 218 222 186 190 189 145 127 127 137 146 158 169 168 163 159 163 163 165 175 183 175 155 149 153 154 156 157 155 155
310 309 307 306 305 304 302 301 300 298 296 294 292 290 289 288 287 287 286 283 278 273 270 266 262 258 255 253 249 242 232 228 228 225 224 220 216 213 210 206 203 203 204 203 204 204 203 206 207 206 205 207 208 205 208 209 209 219 225 225 223 209 208 197 166 156 139 132 151 165 162 159 161 162 167 173 175 180 189 172 156 153 156 156 158 159 157 157
309 308 306 305 303 302 301 300 298 296 294 292 291 289 288 287 285 284 283 281 277 270 266 262 259 257 254 249 243 238 231 228 225 222 221 220 217 213 209 206 203 204 204 203 204 204 204 206 209 208 208 208 207 209 213 214 216 222 228 227 224 219 211 202 185 177 164 144 150 156 150 157 168 165 167 179 180 181 187 167 159 157 157 158 161 162 160 159
308 307 305 304 302 301 299 298 297 295 294 292 290 287 286 285 283 282 280 278 275 268 262 258 256 256 253 246 239 236 232 229 224 219 218 217 218 214 208 206 205 205 205 204 204 204 204 207 211 210 209 208 206 210 214 219 220 219 227 231 227 221 206 200 193 184 180 161 151 153 156 173 180 169 168 181 183 183 182 163 160 160 159 162 165 165 163 162
307 306 305 303 302 301 299 297 296 295 293 291 289 287 284 283 281 279 277 275 271 264 258 255 254 253 249 241 237 234 230 228 223 217 217 220 220 216 211 209 208 206 206 205 204 205 206 209 212 208 210 215 214 215 217 219 217 216 227 235 231 223 204 198 198 193 190 179 166 161 165 179 176 169 172 182 180 177 173 164 163 163 164 167 170 170 167 165
307 305 304 302 301 300 298 297 296 294 293 291 289 286 283 281 279 276 274 272 267 261 255 253 253 250 245 238 233 231 228 226 223 219 219 222 221 215 212 211 209 207 207 206 204 207 208 208 208 208 216 223 220 221 222 221 222 227 235 238 233 221 205 201 202 200 195 187 180 173 172 173 169 175 182 188 181 169 166 165 167 168 168 171 174 175 172 169
307 305 303 301 300 299 297 296 295 293 292 290 287 285 282 279 277 275 272 269 264 259 253 251 251 247 242 237 230 229 229 226 225 221 217 220 220 215 212 211 210 209 207 206 206 207 207 207 208 211 218 221 222 226 226 225 231 238 238 236 230 215 205 204 204 203 201 197 188 173 169 175 175 194 197 185 178 170 166 167 172 174 172 173 176 178 178 173
308 305 303 301 299 297 296 295 294 292 290 288 285 282 280 277 274 272 270 267 262 255 250 248 247 242 240 238 231 230 232 230 229 224 217 220 222 219 215 212 210 210 207 206 207 206 206 209 211 214 219 221 223 225 229 233 239 241 233 228 225 216 209 207 206 205 206 204 187 168 172 198 204 215 209 185 175 170 170 174 178 178 175 176 178 180 183 179
309 306 304 301 299 297 295 294 293 291 289 286 283 280 278 274 271 269 267 264 258 252 248 245 243 242 240 237 233 232 236 233 229 226 222 222 223 221 218 215 213 211 208 206 206 204 206 211 214 219 224 225 224 227 234 238 239 237 229 224 220 218 216 208 204 205 208 204 189 181 201 212 210 215 211 193 181 176 178 183 183 181 178 179 181 182 186 184
310 308 305 303 300 297 295 293 292 291 289 286 283 279 275 272 268 265 263 259 253 248 245 244 242 241 240 237 235 236 236 231 226 225 222 220 221 220 218 216 217 214 210 208 206 206 209 216 221 224 227 227 227 233 236 230 227 228 226 225 215 215 219 207 201 203 207 206 195 198 227 217 211 214 207 195 187 183 186 186 184 184 183 184 186 185 187 187
311 309 307 304 301 299 296 294 292 290 289 286 283 278 274 270 266 262 259 255 249 244 241 242 241 239 242 239 236 238 235 228 226 225 221 220 219 218 215 212 215 215 211 209 209 211 215 220 224 224 224 226 228 230 230 224 220 218 219 225 216 213 217 207 203 205 206 210 206 211 234 220 216 218 204 194 192 189 187 186 185 187 187 189 191 187 188 188
312 310 308 305 303 300 298 295 293 291 288 286 282 278 273 269 264 259 255 249 244 240 238 239 237 235 239 237 234 237 233 228 231 228 223 222 220 219 216 211 211 214 212 211 212 215 218 222 224 223 221 222 224 224 227 228 223 218 213 218 218 214 217 212 211 211 207 210 216 220 227 219 219 218 203 193 196 194 190 189 188 190 191 192 194 190 188 189
316 312 309 306 304 301 298 296 294 292 288 285 281 277 273 268 262 256 250 245 242 240 239 237 235 233 234 234 234 235 231 228 233 231 224 225 223 220 218 213 211 212 213 213 215 218 219 221 222 223 219 216 218 218 223 228 225 223 217 216 217 213 216 218 215 216 211 210 218 223 225 228 223 211 200 198 201 200 196 194 191 191 193 195 195 193 190 190
320 315 310 307 304 301 298 296 295 292 289 285 280 275 269 265 259 250 245 244 243 241 239 236 232 231 231 233 234 233 230 227 232 230 225 226 223 219 219 217 213 210 211 214 216 218 218 219 219 221 221 217 217 214 215 222 220 219 219 218 221 219 219 220 217 216 213 215 219 221 225 227 221 208 202 204 206 205 202 199 196 194 195 196 196 195 193 192
324 320 313 308 305 302 299 296 294 291 289 286 281 271 262 259 254 246 244 245 242 238 237 233 229 229 233 237 237 234 232 229 230 229 226 226 221 219 221 220 215 210 210 214 217 217 216 219 220 220 222 219 219 215 212 220 222 220 222 221 224 229 226 222 223 219 215 219 221 220 222 220 215 209 205 206 207 209 207 203 201 200 199 198 197 197 196 195
325 323 318 311 305 303 299 296 292 291 288 284 281 271 259 259 254 250 253 249 241 239 241 239 235 237 241 241 238 237 236 232 231 229 226 225 219 220 223 221 218 214 212 213 217 217 215 219 222 220 221 220 221 219 215 222 227 229 230 229 230 234 233 227 227 223 216 220 223 220 220 217 213 210 207 206 205 207 208 206 206 203 201 201 199 198 197 197
325 323 321 316 308 303 300 295 292 291 287 279 276 268 256 256 251 251 256 251 243 239 242 244 241 240 242 241 239 239 236 232 231 229 227 224 218 219 222 220 219 219 216 213 215 218 216 220 223 222 222 222 223 222 220 223 228 231 230 232 234 231 233 233 228 224 218 221 226 220 218 218 213 210 210 208 206 207 207 207 207 205 202 201 200 199 198 198
324 322 321 318 311 305 300 296 292 289 284 277 272 263 254 251 246 247 250 248 246 242 241 244 242 240 240 239 239 235 229 230 232 230 227 223 219 220 219 218 219 220 219 215 216 220 221 225 226 223 223 223 224 223 222 224 226 229 228 231 234 227 229 233 225 217 220 229 227 217 217 219 214 212 213 212 211 211 208 206 206 204 202 202 201 201 199 198
323 321 321 319 314 307 300 295 290 284 281 280 275 267 258 252 248 251 248 242 245 244 239 237 236 237 237 235 233 229 226 229 229 228 228 222 219 220 216 217 220 220 219 217 216 219 224 228 226 223 222 222 224 223 222 225 226 228 227 228 230 224 223 225 218 212 227 239 226 214 217 218 213 214 215 215 215 213 209 209 208 206 204 203 201 201 201 199
321 320 320 319 315 309 302 295 285 279 281 280 277 271 261 253 254 254 246 237 240 240 233 230 231 232 231 230 227 224 225 229 227 226 225 218 218 221 218 219 220 220 221 219 218 219 223 226 222 221 223 223 224 225 223 225 227 228 227 227 226 224 222 221 225 232 250 253 217 202 211 217 210 211 214 217 216 214 211 211 212 212 210 206 203 202 203 202
320 319 319 319 316 310 304 292 279 281 282 276 278 278 267 260 259 252 242 235 236 236 228 227 230 229 229 228 225 222 224 231 230 224 221 218 221 223 223 223 221 222 222 219 220 223 225 226 222 221 224 225 225 226 225 223 227 230 227 225 224 224 224 224 229 236 253 255 207 193 205 217 215 213 214 216 216 216 214 212 213 214 212 208 206 205 204 203
320 318 318 318 316 313 304 286 278 285 280 271 279 281 270 264 260 250 239 231 233 231 222 222 226 225 226 225 222 220 225 231 227 221 221 224 228 226 225 227 224 222 222 220 222 224 225 226 223 220 222 224 225 227 226 222 226 231 226 222 222 221 224 226 227 229 234 236 211 202 208 216 217 218 218 216 217 217 215 213 212 211 210 208 207 206 205 204
321 318 317 316 315 313 302 284 285 286 274 271 279 278 270 262 257 250 235 227 231 224 216 219 218 217 221 220 217 216 223 228 224 223 224 225 231 228 225 228 224 223 224 224 224 224 223 223 222 222 223 224 225 227 227 222 224 231 227 222 222 222 223 226 227 227 228 231 222 213 213 215 217 220 220 217 217 218 217 217 214 211 209 207 206 205 203 202
321 319 317 315 312 308 294 284 287 283 273 273 276 275 269 260 255 243 223 221 228 217 212 216 213 218 225 222 219 219 222 224 222 228 229 227 231 227 224 225 221 224 226 223 225 225 221 221 221 222 224 225 226 226 227 224 225 229 227 224 224 223 223 225 227 228 226 228 227 220 214 217 221 222 220 216 215 217 218 218 216 211 208 206 205 204 202 201
322 319 317 315 310 303 291 285 282 275 273 275 274 270 265 259 247 228 215 217 219 214 215 217 219 226 229 224 223 222 225 224 221 227 229 227 228 224 223 224 221 226 229 224 226 225 220 221 224 224 224 225 226 227 226 225 226 229 226 226 226 225 225 224 224 227 225 222 225 221 213 217 227 224 217 214 216 218 220 220 218 213 210 208 207 205 203 201
323 319 317 315 310 302 294 286 277 272 274 278 277 270 263 249 225 216 219 214 209 215 218 219 223 224 223 227 226 221 221 223 221 224 230 229 229 228 228 227 225 227 230 228 227 227 225 225 226 225 223 226 229 229 225 221 225 230 227 226 228 228 228 226 224 224 224 225 226 221 213 217 228 227 215 212 215 217 217 218 218 216 212 210 209 207 205 203
325 321 317 314 308 303 299 288 278 275 276 277 277 269 246 217 206 207 209 206 210 221 219 218 224 222 220 224 223 221 220 220 221 224 230 231 230 233 233 231 230 228 231 231 229 232 231 227 227 224 223 230 233 230 226 222 224 229 226 224 227 229 228 230 229 224 223 226 225 220 217 220 227 229 221 217 219 218 215 214 214 212 209 208 208 207 206 205
330 324 318 313 306 304 301 290 283 281 277 273 268 244 203 195 206 211 211 215 221 224 219 220 224 223 224 219 213 217 216 216 222 219 220 223 222 225 226 227 228 226 229 231 231 234 230 228 230 224 220 232 234 229 229 227 224 226 225 222 223 226 226 227 228 224 223 227 225 220 223 230 231 231 226 222 224 222 220 220 216 210 206 206 206 206 206 206
334 329 324 318 310 308 302 289 283 279 274 272 246 208 190 187 203 222 219 218 219 219 220 224 225 220 219 214 212 215 213 217 226 219 214 214 213 216 220 225 228 224 225 228 231 232 228 228 229 220 219 232 233 224 226 230 227 224 222 220 219 219 222 226 228 227 228 231 229 224 229 235 236 235 227 222 224 223 222 222 220 216 211 208 208 207 206 207
336 332 330 324 315 308 299 288 282 273 278 276 204 186 172 171 203 216 206 208 213 222 230 231 230 223 215 213 215 217 216 220 225 219 215 212 214 221 226 233 237 231 227 228 230 228 224 226 223 217 224 234 231 223 228 234 230 224 220 218 219 220 220 224 225 226 228 234 234 229 228 229 230 233 228 222 224 221 219 219 217 217 216 213 212 211 208 208
340 336 332 328 320 310 296 285 272 218 224 192 167 162 151 161 216 217 214 222 218 232 250 236 223 219 218 216 215 219 218 216 217 215 210 207 213 225 230 235 243 241 231 228 232 229 223 225 223 220 226 231 231 234 239 237 228 225 222 219 221 222 222 225 227 225 226 231 233 229 229 229 230 236 233 228 228 222 218 217 214 215 215 213 213 212 210 209
344 344 344 338 331 326 322 138 145 148 140 131 139 141 145 170 225 228 232 235 229 245 252 225 206 211 215 214 217 227 221 209 209 212 210 207 210 225 231 232 243 246 232 226 232 232 226 228 229 227 224 223 235 243 239 229 226 227 225 225 227 222 219 226 231 230 226 228 233 232 235 240 242 242 235 228 229 227 222 220 217 216 213 210 211 211 210 209
350 355 0 360 2 29 94 109 118 132 128 124 130 136 153 192 242 242 244 243 240 243 215 186 203 208 200 204 214 226 219 210 214 218 218 218 224 237 238 235 246 253 241 230 230 231 231 233 232 229 225 229 248 246 227 216 222 223 227 237 236 226 220 222 226 230 227 228 233 232 234 241 243 243 238 230 229 229 226 224 221 218 214 211 211 211 209 209
357 4 14 17 35 67 90 97 100 110 115 118 119 118 133 171 283 248 254 249 232 221 186 177 205 198 187 197 208 216 215 215 222 223 217 219 230 242 242 240 249 261 258 243 234 234 236 237 234 229 227 236 246 238 225 228 228 218 224 237 233 223 224 225 222 224 226 228 233 232 232 235 237 241 245 240 234 231 229 227 224 219 215 213 213 212 210 209
5 18 27 25 45 67 75 90 87 78 96 113 107 101 128 62 27 8 348 274 215 209 200 199 205 193 191 202 206 212 211 211 222 224 221 222 230 244 251 245 248 260 260 243 238 240 238 236 235 231 229 236 237 229 229 241 238 225 227 237 231 223 225 226 222 220 223 224 227 230 230 229 233 242 248 246 241 236 232 230 227 221 216 214 214 213 212 209
17 28 32 31 50 60 54 59 49 59 82 105 106 102 160 65 31 20 22 27 195 202 209 212 209 200 204 209 209 216 214 209 218 219 223 224 223 239 255 250 249 256 254 243 242 243 239 236 238 236 233 230 229 229 233 241 240 233 232 236 238 232 226 225 225 223 222 221 220 221 221 220 229 240 247 252 249 243 238 232 229 224 216 213 213 213 212 210
27 34 38 39 47 46 34 26 25 63 82 359 152 111 23 19 347 3 20 38 127 178 192 196 201 204 210 212 215 224 221 217 222 213 219 229 225 237 254 257 254 255 252 251 251 247 242 239 241 242 237 230 230 234 237 238 234 226 222 226 235 235 226 223 226 227 226 223 221 217 212 213 225 235 244 254 252 251 247 235 226 224 218 213 213 214 213 210
33 39 37 31 29 28 31 36 44 70 78 64 59 48 30 359 317 347 14 35 113 186 188 185 204 214 213 213 218 226 221 221 232 220 219 232 233 241 257 268 266 257 250 248 251 254 250 243 243 244 239 235 237 239 236 232 226 218 214 222 231 229 223 223 225 230 233 230 227 220 211 212 225 235 247 256 254 259 259 240 222 219 218 214 214 214 211 209
31 30 26 25 24 30 45 55 54 44 55 88 79 55 37 20 360 22 31 96 196 225 203 193 212 214 219 230 227 228 227 225 230 224 224 235 240 250 265 277 275 265 257 251 252 260 255 245 246 249 243 238 236 233 227 221 220 222 221 227 231 229 231 229 224 227 229 225 225 223 216 216 231 243 254 263 262 264 266 248 223 216 216 214 212 209 207 206
25 24 28 31 34 44 58 66 65 54 56 79 76 56 40 36 35 42 37 224 220 242 223 219 226 216 226 242 235 233 234 229 230 236 240 243 247 260 278 287 281 271 263 256 254 259 255 246 246 250 246 240 233 228 227 225 226 229 229 232 234 235 240 233 222 222 223 220 223 222 217 222 237 246 259 270 270 264 262 253 229 217 216 213 208 204 203 204
24 30 30 32 39 48 60 70 73 67 60 62 60 49 41 38 38 41 32 337 354 349 237 245 244 227 235 245 242 247 245 236 239 248 250 250 254 263 278 286 283 273 265 261 261 259 252 247 245 238 233 233 230 228 233 237 239 237 236 237 238 238 240 233 226 225 223 225 230 222 218 228 240 248 265 274 272 262 252 246 231 218 216 212 207 204 203 203
28 33 24 22 30 36 43 52 59 60 57 59 54 44 44 47 37 31 25 6 351 341 286 272 267 250 254 256 249 257 262 250 246 251 254 256 257 262 272 279 279 276 272 275 277 265 251 249 247 236 231 233 234 235 238 240 241 241 242 243 240 238 237 233 228 225 224 230 233 221 216 230 245 257 267 269 271 261 238 231 226 214 209 204 200 201 201 202
32 32 22 14 19 25 28 34 41 42 37 48 41 28 38 42 21 7 6 360 348 327 294 293 300 274 266 269 258 259 264 258 255 259 260 259 258 262 271 274 273 278 280 280 278 266 255 255 251 242 240 240 239 241 243 242 241 243 245 244 241 238 237 233 229 227 227 229 227 222 221 232 245 253 251 249 256 243 223 226 225 210 198 189 185 190 194 194
32 30 25 28 30 24 21 28 39 38 28 24 13 10 28 29 9 348 343 348 352 337 302 298 318 304 276 274 265 263 264 260 261 264 261 261 262 265 270 270 268 275 278 276 273 263 256 256 254 251 251 249 246 247 247 244 242 242 243 241 239 238 236 234 231 230 229 225 225 229 231 233 238 239 232 233 234 219 210 224 223 211 200 189 184 188 192 192
34 33 29 35 37 29 28 34 40 36 24 13 1 359 8 10 358 335 321 322 329 328 317 306 314 311 295 282 272 267 263 257 260 264 263 265 267 266 268 267 267 271 272 270 270 264 257 258 258 257 256 254 253 252 250 248 246 244 243 240 238 236 235 235 233 232 230 228 229 231 231 229 231 230 225 225 223 210 197 191 208 207 203 197 194 195 197 198
37 35 31 32 32 34 39 35 30 29 18 10 4 349 347 355 348 326 324 335 327 316 316 311 310 310 303 295 286 274 266 260 261 262 261 264 266 266 267 266 266 272 273 269 269 266 261 261 261 259 257 255 254 253 252 250 250 248 245 241 239 237 235 235 234 233 231 230 229 230 229 227 227 227 223 223 225 215 202 188 173 189 194 197 200 203 204 206
39 38 37 37 32 31 34 26 23 29 14 4 5 349 344 353 348 328 328 345 346 322 308 305 303 303 304 306 296 280 276 269 261 260 259 259 262 263 265 267 270 274 274 270 269 268 265 264 264 262 258 255 254 255 254 252 251 249 244 239 237 235 233 234 234 234 233 231 229 230 229 224 223 226 224 221 224 219 208 206 203 184 181 188 197 206 209 210
37 38 39 44 38 30 32 27 24 28 16 7 11 4 357 357 354 348 337 339 347 341 321 312 306 300 306 310 294 280 278 269 260 262 263 261 263 266 266 268 272 273 270 268 270 269 265 264 266 263 258 257 256 256 255 253 249 242 237 235 235 235 235 235 234 233 231 228 225 224 223 221 222 226 225 220 222 221 215 212 209 199 193 194 198 204 207 207